Regional Weather Roundup
Issued by NWS

Home | Current Version | Previous Version | Graphics & Text | Print | Product List | Glossary On
Versions: 1 2 3 4 5 6 7 8 9 10 11 12 13 14 15 16 17 18 19 20 21 22 23 24 25 26 27 28 29 30 31 32 33 34 35 36 37 38 39 40 41 42 43 44 45 46 47 48 49 50
000
ASUS43 KLOT 261203
RWRIL

ILLINOIS REGIONAL WEATHER ROUNDUP
NATIONAL WEATHER SERVICE CHICAGO/ROMEOVILLE IL
700 AM CDT MON SEP 26 2016

NOTE: "FAIR" INDICATES FEW OR NO CLOUDS BELOW 12,000 FEET WITH NO
SIGNIFICANT WEATHER AND/OR OBSTRUCTIONS TO VISIBILITY.

* THESE STATIONS ARE NOT UNDER NWS QUALITY CONTROL. THEY ALSO MAY NOT
  REPORT WEATHER SUCH AS PRECIPITATION OR FOG.

ILZ001-002-007-009-015-016-024-261300-
NORTHWEST ILLINOIS

CITY           SKY/WX    TMP DP  RH WIND       PRES   REMARKS
MOLINE         CLEAR     52  46  80 SW7       30.08R
6HR MIN TEMP:  52; 6HR MAX TEMP:  62;

STERLING*      CLEAR     54  48  80 SW8       30.05R
SAVANNA*       CLEAR     54  47  76 W9        30.04R
$$

ILZ003-004-008-010-011-017-018-261300-
NORTH CENTRAL ILLINOIS

CITY           SKY/WX    TMP DP  RH WIND       PRES   REMARKS
ROCKFORD       PTCLDY    55  48  77 SW10      30.03R
6HR MIN TEMP:  54; 6HR MAX TEMP:  62;

FREEPORT*      CLEAR     51  46  82 SW9       30.03R
ROCHELLE*      PTCLDY    53  49  88 W7        30.04R
$$

ILZ005-006-012>014-019>023-261300-
NORTHEAST ILLINOIS

CITY           SKY/WX    TMP DP  RH WIND       PRES   REMARKS
CHICAGO-OHARE  CLOUDY    59  50  72 W13       29.99R
6HR MIN TEMP:  59; 6HR MAX TEMP:  63; 6HR PCP: TRACE;

CHICAGO-MIDWAY CLOUDY    61  49  64 W8        30.00R
6HR MIN TEMP:  60; 6HR MAX TEMP:  67; 6HR PCP:  0.02;

AURORA         CLOUDY    58  50  75 W9        30.02R
6HR MIN TEMP:  58; 6HR MAX TEMP:  63;

LANSING*       CLOUDY    58  54  86 W6        30.01R
JOLIET*        CLOUDY    60  53  78 W9        30.02S
WAUKEGAN       CLOUDY    58  49  72 VRB5      29.96R
6HR MIN TEMP:  58; 6HR MAX TEMP:  63;

DUPAGE AIRPORT CLOUDY    58  49  72 W12       30.00R
6HR MIN TEMP:  58; 6HR MAX TEMP:  62; 6HR PCP: TRACE;

KANKAKEE*      CLOUDY    57  54  88 SW5       30.04S
WHEELING       CLOUDY    59  49  69 W10       29.99R
6HR MIN TEMP:  59; 6HR MAX TEMP:  63; 6HR PCP: TRACE;

MORRIS*        CLOUDY    58  51  78 W8        30.03R
ROMEOVILLE*    CLOUDY    57  54  88 W8        30.01F
NORTHERLY ISL    N/A     61  49  64 W10         N/A
$$

LMZ740>746-261300-
SOUTHERN LAKE MICHIGAN

STATION/POSITION SKY/WX   TEMP    WIND        PRES    VSBY  WAVE
                          AIR SEA DIR/SP/G                  HT/PER
                          (F)     (DEG/KT/KT) (MB)    (MI)  (FT/S)
SOUTHERN BUOY              63 71  290/ 19/ 25 1012.7          5/ 5
WILMETTE HARBOR            61 64  300/ 12/ 16   N/A           2/ 3
HARRISON CRIB              62     270/ 15/ 18   N/A
BURNHAM HARBOR             61     270/  8/ 13   N/A
CALUMET HARBOR             61     270/  4/ 10 1015.1R
BURNS HARBOR               63     290/ 17/ 23 1015.2S
MICHIGAN CITY              62     280/ 17/ 20   N/A
MICHIGAN CITY 6N           64 67  300/ 16/ 19   N/A           5/ 5
ST. JOSEPH                 64 67  290/ 17/ 23 1014.1R         5/ 5
$$

ILZ025>027-034>036-040-047-049-050-058-095>099-261300-
WEST-CENTRAL ILLINOIS

CITY           SKY/WX    TMP DP  RH WIND       PRES   REMARKS
QUINCY         CLEAR     54  48  80 W6        30.15R
GALESBURG*     CLEAR     52  47  83 W7        30.11R
MACOMB*        CLEAR     52  49  89 W6        30.15R
JACKSONVILLE*  CLOUDY    56  54  91 W5        30.14R
PITTSFIELD*    CLOUDY    57  53  86 W5        30.16R
$$

ILZ028>032-037-038-041>044-048-051>054-059>061-261300-
CENTRAL ILLINOIS

CITY           SKY/WX    TMP DP  RH WIND       PRES   REMARKS
PONTIAC        CLOUDY    58  55  88 W8        30.07R
BLOOMINGTON    CLOUDY    58  52  80 W9        30.09S
DECATUR        CLOUDY    60  53  77 NW12      30.10R
PEORIA         CLOUDY    57  50  77 W6        30.10R
6HR MIN TEMP:  57; 6HR MAX TEMP:  63; 6HR PCP: TRACE;

LACON*         CLOUDY    57  49  73 W8        30.07S
SPRINGFIELD    CLOUDY    59  54  83 W8        30.13R
6HR MIN TEMP:  59; 6HR MAX TEMP:  67; 6HR PCP:  0.10;

TAYLORVILLE    CLOUDY    58  55  89 W7        30.12R
6HR MIN TEMP:  57; 6HR MAX TEMP:  66; 6HR PCP:  0.02;

$$

ILZ033-039-045-046-055>057-062-063-261300-
EAST-CENTRAL ILLINOIS

CITY           SKY/WX    TMP DP  RH WIND       PRES   REMARKS
CHAMPAIGN      CLOUDY    58  55  90 W6        30.08R
RANTOUL*       CLOUDY    59  56  91 W7        30.08R
MATTOON        CLOUDY    58  55  90 W7        30.10R
PARIS*         CLOUDY    57  57  99 CALM      30.09S
$$

ILZ079-100>102-261300-
SOUTHWEST ILLINOIS

CITY           SKY/WX    TMP DP  RH WIND       PRES   REMARKS
ALTON          CLOUDY    57  55  94 W7        30.15S
CAHOKIA*       CLOUDY    61  56  83 W3        30.14S
SPARTA*        CLOUDY    58  57  96 CALM      30.15F
$$

ILZ064>066-069>071-074>076-080>082-084>086-088>090-092>094-261300-
SOUTH-CENTRAL ILLINOIS

CITY           SKY/WX    TMP DP  RH WIND       PRES   REMARKS
CARBONDALE     LGT RAIN  58  58 100 NW8       30.14R
6HR MIN TEMP:  58; 6HR MAX TEMP:  74; 6HR PCP:  0.58;

EFFINGHAM*     CLOUDY    58  58 100 W6        30.13R
MARION         CLOUDY    63  57  82 N9        30.13R
MT. VERNON     CLOUDY    57  52  82 CALM      30.14R
CENTRALIA*     CLOUDY    59  58  98 W3        30.14R
SALEM*         LGT RAIN  59  57  91 W6        30.15R
METROPOLIS*    CLOUDY    63  60  91 CALM      30.12S
$$

ILZ067-068-072-073-078-083-087-091-261300-
SOUTHEAST ILLINOIS

CITY           SKY/WX    TMP DP  RH WIND       PRES   REMARKS
LAWRENCEVILLE  CLOUDY    61  56  83 NW12      30.09R
FLORA*         LGT RAIN  60  58  94 NW7       30.12R
FAIRFIELD*       N/A     58  57  96 NW3       30.12R
HARRISBURG*    CLOUDY    62  59  89 NW8       30.12R
ROBINSON*      LGT RAIN  57  56  97 NW7       30.10R
CARMI*         CLOUDY    61  59  92 NW10      30.11R
$$

ABBREVIATIONS USED IN REMARKS
   TC - TEMPERATURE IN CELSIUS
  WCI - WIND CHILL INDEX
   HX - HEAT INDEX
  VSB - VISIBILITY
$$





USA.gov is the U.S. government's official web portal to all federal, state and local government web resources and services.